Weather History for KBTV - April, 2014

Change the Weather History Date:

Friday, April 18, 2014

  Actual Average Record
Temperature  
Mean Temperature 43 °F 46 °F  
Max Temperature 54 °F 56 °F 91 °F (1976)
Min Temperature 31 °F 36 °F 21 °F (1948)
Degree Days  
Heating Degree Days 22 19  
Month to date heating degree days 392 414  
Since 1 July heating degree days 7179 6878  
Cooling Degree Days 0 0  
Month to date cooling degree days 0 0  
Year to date cooling degree days 0 0  
Moisture  
Dew Point 15 °F    
Average Humidity 34    
Maximum Humidity 51    
Minimum Humidity 16    
Precipitation  
Precipitation 0.00 in 0.10 in 0.76 in (1985)
Month to date precipitation 2.50 1.66  
Year to date precipitation 8.66 7.70  
Snow  
Snow 0.00 in 0.10 in 8.50 in (1997)
Month to date snowfall 2.8 3.5  
Since 1 July snowfall 86.5 80.1  
Snow Depth 0.00 in    
Sea Level Pressure  
Sea Level Pressure 30.37 in    
Wind  
Wind Speed 11 mph (South)    
Max Wind Speed 22 mph    
Max Gust Speed 30 mph    
Visibility 10 miles    
Events      
T = Trace of Precipitation, MM = Missing Value Source: NWS Daily Summary

Daily Weather History Graph

Daily Weather History Graph

Search for Another Location

Airport or City:

Trip Planner

Search our weather history database for the weather conditions in past years. The results will help you decide how hot, cold, wet, or windy it might be!

Date:

Astronomy

Apr. 18, 2014 Rise Set
Actual Time 6:03 AM EDT 7:40 PM EDT
Civil Twilight 5:33 AM EDT 8:11 PM EDT
Nautical Twilight 4:55 AM EDT 8:48 PM EDT
Astronomical Twilight 4:16 AM EDT 9:29 PM EDT
Moon 11:29 PM EDT (4/18) 8:18 AM EDT (4/18)
Length of Visible Light 14h 38m
Length of Day
13h 37m
Waning Gibbous, 87% of the Moon is Illuminated
Apr 18
Waning Gibbous
Apr 22
Last Quarter
Apr 29
New
May 6
First Quarter
May 14
Full

Hourly Weather History & Observations

Time (EDT) Temp. Windchill Dew Point Humidity Pressure Visibility Wind Dir Wind Speed Gust Speed Precip Events Conditions
12:54 AM 37.0 °F 30.4 °F 19.0 °F 48% 30.58 in 10.0 mi SSE 9.2 mph - N/A   Clear
1:54 AM 35.1 °F 31.0 °F 18.0 °F 50% 30.57 in 10.0 mi South 4.6 mph - N/A   Clear
2:54 AM 36.0 °F 29.6 °F 15.1 °F 43% 30.56 in 10.0 mi South 8.1 mph - N/A   Clear
3:54 AM 34.0 °F 28.0 °F 14.0 °F 44% 30.56 in 10.0 mi SSE 6.9 mph - N/A   Clear
4:54 AM 33.1 °F 30.0 °F 12.9 °F 43% 30.54 in 10.0 mi SSE 3.5 mph - N/A   Clear
5:54 AM 32.0 °F 26.4 °F 15.1 °F 50% 30.50 in 10.0 mi SE 5.8 mph - N/A   Clear
6:54 AM 34.0 °F 28.0 °F 17.1 °F 50% 30.49 in 10.0 mi SE 6.9 mph - N/A   Clear
7:54 AM 37.0 °F 33.3 °F 16.0 °F 42% 30.48 in 10.0 mi SSE 4.6 mph - N/A   Clear
8:54 AM 41.0 °F 33.9 °F 9.0 °F 27% 30.48 in 10.0 mi SSE 12.7 mph - N/A   Clear
9:54 AM 44.1 °F 37.1 °F 6.1 °F 21% 30.48 in 10.0 mi South 15.0 mph 24.2 mph N/A   Clear
10:54 AM 46.9 °F - 7.0 °F 20% 30.45 in 10.0 mi South 17.3 mph - N/A   Clear
11:54 AM 48.9 °F - 10.0 °F 21% 30.40 in 10.0 mi South 13.8 mph 19.6 mph N/A   Scattered Clouds
12:54 PM 52.0 °F - 9.0 °F 18% 30.35 in 10.0 mi South 13.8 mph 21.9 mph N/A   Mostly Cloudy
1:54 PM 52.0 °F - 7.0 °F 16% 30.32 in 10.0 mi South 17.3 mph - N/A   Overcast
2:54 PM 53.1 °F - 9.0 °F 17% 30.30 in 10.0 mi South 16.1 mph 27.6 mph N/A   Mostly Cloudy
3:54 PM 53.1 °F - 15.1 °F 22% 30.28 in 10.0 mi South 11.5 mph 20.7 mph N/A   Overcast
4:54 PM 52.0 °F - 16.0 °F 24% 30.24 in 10.0 mi South 11.5 mph - N/A   Mostly Cloudy
5:54 PM 52.0 °F - 16.0 °F 24% 30.21 in 10.0 mi South 17.3 mph 24.2 mph N/A   Mostly Cloudy
6:54 PM 51.1 °F - 19.9 °F 29% 30.19 in 10.0 mi South 11.5 mph - N/A   Scattered Clouds
7:54 PM 48.0 °F - 21.9 °F 36% 30.19 in 10.0 mi South 10.4 mph - N/A   Scattered Clouds
8:54 PM 48.0 °F - 23.0 °F 37% 30.19 in 10.0 mi South 10.4 mph - N/A   Mostly Cloudy
9:54 PM 46.9 °F - 25.0 °F 42% 30.19 in 10.0 mi SSW 10.4 mph - N/A   Overcast
10:54 PM 46.9 °F - 25.0 °F 42% 30.18 in 10.0 mi South 10.4 mph 20.7 mph N/A   Mostly Cloudy
11:54 PM 46.9 °F - 25.0 °F 42% 30.18 in 10.0 mi South 11.5 mph - N/A   Overcast